Tracking 31027 objects as of 19-Jul-2025
HD Live streaming from Space Station
objects crossing your sky now

STARLINK-5244

Track STARLINK-5244 now!
10-day predictions
STARLINK-5244 is classified as:


NORAD ID: 54199
Int'l Code: 2022-141AU
Perigee: 546.1 km
Apogee: 547.6 km
Inclination: 53.2 °
Period: 95.4 minutes
Semi major axis: 6917 km
RCS: Unknown
Launch date: October 28, 2022
Source: United States (US)
Launch site: AIR FORCE WESTERN TEST RANGE (AFWTR)
Your satellite tracking list
SL-8 DEB
Track 1 satellite(s)




NASA's NSSDC Master Catalog

Two Line Element Set (TLE):
1 54199U 22141AU  25199.62824076  .00002855  00000-0  19742-3 0  9995
2 54199  53.2186 324.7872 0001083  76.2959 283.8154 15.08839198150669
Source of the keplerian elements: AFSPC